Lubbock, TX

12:38 PM CST on November 14, 2019 (GMT -0600)
Lubbock International

Weather History for KLBB - September, 2019

Change the Weather History Date:

Monday, September 30, 2019

  Actual Average Record
Temperature  
Mean Temperature 74 °F 67 °F  
Max Temperature 82 °F 80 °F 99 °F (1977)
Min Temperature 66 °F 53 °F 35 °F (1985)
Degree Days  
Heating Degree Days 0 2  
Month to date heating degree days 23  
Since 1 July heating degree days 23  
Cooling Degree Days 9 4  
Month to date cooling degree days 223  
Year to date cooling degree days 1749  
Growing Degree Days 24 (Base 50)    
Moisture  
Dew Point 65 °F    
Average Humidity 72    
Maximum Humidity 87    
Minimum Humidity 54    
Precipitation  
Precipitation 0.04 in 0.07 in 1.78 in (1941)
Month to date precipitation 2.51  
Year to date precipitation 15.58  
Snow  
Snow - 0.00 in 0.00 in (2002)
Month to date snowfall 0.0  
Since 1 July snowfall 0.0  
Since 1 September snowfall 0.0  
Snow Depth -    
Sea Level Pressure  
Sea Level Pressure 29.87 in    
Wind  
Wind Speed 14 mph ()    
Max Wind Speed 33 mph    
Max Gust Speed 54 mph    
Visibility 10.0 miles    
Events Rain , Thunderstorm    
T = Trace of Precipitation, MM = Missing Value Source: Averaged Metar Reports

Daily Weather History Graph

Daily Weather History Graph

Search for Another Location

Airport or City:

Astronomy

Sep. 30, 2019 Rise Set
Actual Time 7:40 AM CDT 7:33 PM CDT
Civil Twilight 7:15 AM CDT 7:58 PM CDT
Nautical Twilight 6:47 AM CDT 8:26 PM CDT
Astronomical Twilight 6:18 AM CDT 8:55 PM CDT
Moon 9:42 AM CDT (9/30) 9:16 PM CDT (9/30)
Length of Visible Light 12h 42m
Length of Day
11h 52m
Waxing Crescent, 6% of the Moon is Illuminated
Sep 30
Waxing Crescent
Oct 5
First Quarter
Oct 13
Full
Oct 21
Last Quarter
Oct 27
New

Hourly Weather History & Observations

Time (CDT) Temp. Heat Index Dew Point Humidity Pressure Visibility Wind Dir Wind Speed Gust Speed Precip Events Conditions
12:00 AM 66.9 °F - 61.0 °F 81% 30.05 in 10.0 mi WSW 33.4 mph 54.1 mph 0.00 in Rain , Thunderstorm Light Thunderstorms and Rain
12:50 AM 69.8 °F - 60.8 °F 73% 30.01 in 10.0 mi WSW 6.9 mph - 0.04 in   Scattered Clouds
12:53 AM 69.1 °F - 61.0 °F 75% 29.88 in 10.0 mi SW 9.2 mph - 0.04 in   Partly Cloudy
1:53 AM 69.1 °F - 61.0 °F 75% 29.84 in 10.0 mi SSE 9.2 mph - N/A   Scattered Clouds
2:53 AM 69.1 °F - 62.1 °F 78% 29.85 in 10.0 mi SSE 11.5 mph - N/A   Mostly Cloudy
3:53 AM 69.1 °F - 63.0 °F 81% 29.83 in 10.0 mi SSE 10.4 mph - N/A   Mostly Cloudy
4:53 AM 70.0 °F - 64.0 °F 81% 29.83 in 10.0 mi SSE 10.4 mph - N/A   Scattered Clouds
5:53 AM 69.1 °F - 64.0 °F 84% 29.84 in 10.0 mi SSE 10.4 mph - N/A   Mostly Cloudy
6:53 AM 69.1 °F - 64.9 °F 87% 29.85 in 10.0 mi South 11.5 mph - N/A   Partly Cloudy
7:21 AM 70.0 °F - 64.9 °F 84% 30.01 in 10.0 mi South 16.1 mph - N/A   Mostly Cloudy
7:53 AM 70.0 °F - 66.0 °F 87% 29.86 in 10.0 mi South 15.0 mph - N/A   Mostly Cloudy
8:53 AM 72.0 °F - 66.0 °F 81% 29.88 in 10.0 mi South 17.3 mph - N/A   Overcast
9:53 AM 73.0 °F - 66.9 °F 81% 29.89 in 10.0 mi South 18.4 mph - N/A   Overcast
10:53 AM 73.9 °F - 66.9 °F 79% 29.89 in 10.0 mi South 19.6 mph - N/A   Overcast
11:53 AM 75.9 °F - 66.9 °F 74% 29.91 in 10.0 mi South 23.0 mph 28.8 mph N/A   Overcast
12:24 PM 75.9 °F - 66.9 °F 74% 30.04 in 10.0 mi South 19.6 mph - N/A   Overcast
12:53 PM 77.0 °F - 66.9 °F 71% 29.90 in 10.0 mi South 16.1 mph - N/A   Overcast
1:40 PM 79.0 °F - 66.9 °F 66% 30.02 in 10.0 mi South 18.4 mph 28.8 mph N/A   Overcast
1:53 PM 80.1 °F 82.3 °F 66.9 °F 64% 29.87 in 10.0 mi South 18.4 mph - N/A   Mostly Cloudy
2:53 PM 81.0 °F 82.7 °F 64.9 °F 58% 29.84 in 10.0 mi South 18.4 mph - N/A   Mostly Cloudy
3:53 PM 82.9 °F 84.6 °F 64.9 °F 54% 29.82 in 10.0 mi South 18.4 mph 25.3 mph N/A   Overcast
4:53 PM 82.0 °F 83.4 °F 64.0 °F 54% 29.81 in 10.0 mi South 18.4 mph 27.6 mph N/A   Overcast
5:53 PM 82.0 °F 83.4 °F 64.0 °F 54% 29.79 in 10.0 mi South 19.6 mph - N/A   Mostly Cloudy
6:53 PM 81.0 °F 82.5 °F 64.0 °F 56% 29.79 in 10.0 mi South 17.3 mph - N/A   Mostly Cloudy
7:53 PM 79.0 °F - 64.0 °F 60% 29.80 in 10.0 mi South 10.4 mph - N/A   Mostly Cloudy
8:53 PM 75.0 °F - 66.0 °F 73% 29.80 in 10.0 mi SSE 9.2 mph - N/A   Overcast
9:53 PM 77.0 °F - 64.0 °F 64% 29.81 in 10.0 mi South 12.7 mph - N/A   Scattered Clouds
10:53 PM 75.9 °F - 64.0 °F 67% 29.81 in 10.0 mi South 12.7 mph - N/A   Scattered Clouds
11:53 PM 71.1 °F - 64.9 °F 81% 29.82 in 10.0 mi SSE 8.1 mph - N/A   Scattered Clouds